EHI
0 0 0 0 0 0 0 0 0 0 0 0 0 0 0 0 0 0 0 0 0 0 0 0 0 0 0 0 0 0 0 0 0 0 0 0 0 0 0 0 0 0 0
0 0 0 0 0 0 0 0 0 0 0 0 0 0 0 0 0 0 0 0 0 0 0 0 0 0 0 0 0 0 0 0 0 0 0 0 0 0 0 0 0 0 0
0 0 0 0 0 0 0 0 0 0 0 0 0 0 0 0 0 0 0 0 0 0 0 0 0 0 0 0 0 0 0 0 0 0 0 0 0 0 0 0 0 0 0
0 0 0 0 0 0 0 0 0 0 0 0 0 0 0 0 0 0 0 0 0 0 0 0 0 0 0 0 0 0 0 0 0 0 0 0 0 0 0 0 0 0 0
0 0 0 0 0 0 0 0 0 0 0 0 0 0 0 0 0 0 0 0 0 0 0 0 0 0 0 0 0 0 0 0 0 0 0 0 0 0 0 0 0 0 0
0 0 0 0 0 0 0 0 0 0 0 0 0 0 0 0 0 0 0 0 0 0 0 0 0 0 0 0 0 0 0 0 0 0 0 0 0 0 0 0 0 0 0
0 0 0 0 0 0 0 0 0 0 0 0 0 0 0 0 0 0 0 0 0 0 0 0 0 0 0 0 0 0 0 0 0 0 0 0 0 0 0 0 0 0 0
0 0 0 0 0 0 0 0 0 0 0 0 0 0 0 0 0 0 0 0 0 0 0 0 0 0 0 0 0 0 0 0 0 0 0 0 0 0 0 0 0 0 0
0 0 0 0 0 0 0 0 0 0 0 0 0 0 0 0 0 0 0 0 0 0 0 0 0 0 0 0 0 0 0 0 0 0 0 0 0 0 0 0 0 0 0
0 0 0 0 0 0 0 0 0 0 0 0 0 0 0 0 0 0 0 0 0 0 0 0 0 0 0 0 0 0 0 0 0 0 0 0 0 0 0 0 0 0 0
0 0 0 0 0 0 0 0 0 0 0 0 0 0 0 0 0 0 0 0 0 0 0 0 0 0 0 0 0 0 0 0 0 0 0 0 0 0 0 0 0 0 0
0 0 0 0 0 0 0 0 0 0 0 0 0 0 0 0 0 0 0 0 0 0 0 0 0 0 0 0 0 0 0 0 0 0 0 0 0 0 0 0 0 0 0
0 0 0 0 0 0 0 0 0 0 0 0 0 0 0 0 0 0 0 0 0 0 0 0 0 0 0 0 0 0 0 0 0 0 0 0 0 0 0 0 0 0 0
0 0 0 0 0 0 0 0 0 0 0 0 0 0 0 0 0 0 0 0 0 0 0 0 0 0 0 0 0 0 0 0 0 0 0 0 0 0 0 0 0 0 0
0 0 0 0 0 0 0 0 0 0 0 0 0 0 0 0 0 0 0 0 0 0 0 0 0 0 0 0 0 0 0 0 0 0 0 0 0 0 0 0 0 0 0
0 0 0 0 0 0 0 0 0 0 0 0 0 0 0 0 0 0 0 0 0 0 0 0 0 0 0 0 0 0 0 0 0 0 0 0 0 0 0 0 0 0 0
0 0 0 0 0 0 0 0 0 0 0 0 0 0 0 0 0 0 0 0 0 0 0 0 0 0 0 0 0 0 0 0 0 0 0 0 0 0 0 0 0 0 0
0 0 0 0 0 0 0 0 0 0 0 0 0 0 0 0 0 0 0 0 0 0 0 0 0 0 0 0 0 0 0 0 0 0 0 0 0 0 0 0 0 0 0
0 0 0 0 0 0 0 0 0 0 0 0 0 0 0 0 0 0 0 0 0 0 0 0 0 0 0 0 0 0 0 0 0 0 0 0 0 0 0 0 0 0 0
0 0 0 0 0 0 0 0 0 0 0 0 0 0 0 0 0 0 0 0 0 0 0 0 0 0 0 0 0 0 0 0 0 0 0 0 0 0 0 0 0 0 0
0 0 0 0 0 0 0 0 0 0 0 0 0 0 0 0 0 0 0 0 0 0 0 0 0 0 0 0 0 0 0 0 0 0 0 0 0 0 0 0 0 0 0
0 0 0 0 0 0 0 0 0 0 0 0 0 0 0 0 0 0 0 0 0 0 0 0 0 0 0 0 0 0 0 0 0 0 0 0 0 0 0 0 0 0 0
0 0 0 0 0 0 0 0 0 0 0 0 0 0 0 0 0 0 0 0 0 0 0 0 0 0 0 0 0 0 0 0 0 0 0 0 0 0 0 0 0 0 0
0 0 0 0 0 0 0 0 0 0 0 0 0 0 0 0 0 0 0 0 0 0 0 0 0 0 0 0 0 0 0 0 0 0 0 0 0 0 0 0 0 0 0
0 0 0 0 0 0 0 0 0 0 0 0 0 0 0 0 0 0 0 0 0 0 0 0 0 0 0 0 0 0 0 0 0 0 0 0 0 0 0 0 0 0 0
0 0 0 0 0 0 0 0 0 0 0 0 0 0 0 0 0 0 0 0 0 0 0 0 0 0 0 0 0 0 0 0 0 0 0 0 0 0 0 0 0 0 0
Wind_Speed
2 2 2 2 2 2 2 2 2 1 1 2 2 2 2 2 3 2 3 3 3 3 3 4 4 3 3 2 2 2 3 3 4 4 2 2 2 3 3 2 3 3 4
2 2 2 2 2 2 2 2 2 2 2 2 2 2 2 3 3 4 4 4 4 4 4 4 5 3 4 3 3 4 4 4 4 5 3 2 3 3 3 3 3 3 4
2 2 2 2 2 3 3 3 3 2 2 2 2 3 3 3 3 3 4 4 4 5 5 5 5 5 5 4 4 4 3 3 3 3 4 2 2 2 2 2 3 3 4
1 2 2 2 3 3 3 3 3 3 3 3 3 3 4 4 4 4 4 4 4 4 5 5 6 6 6 6 4 5 4 3 3 3 3 3 2 2 2 3 3 2 3
1 2 2 2 2 2 2 2 2 2 2 3 3 3 3 3 4 4 4 4 4 4 4 5 5 7 8 6 5 4 4 4 3 3 4 3 3 2 3 2 3 3 3
1 2 2 1 1 1 2 2 2 2 2 2 3 3 3 4 6 7 4 4 4 5 5 4 5 6 7 9 9 9 8 6 5 5 4 5 5 4 3 3 3 2 4
1 1 1 1 1 2 2 1 2 2 2 2 3 3 4 5 7 7 7 4 4 4 5 4 4 5 6 5 8 9 9 11 10 6 6 7 5 5 5 4 4 4 5
1 1 1 1 2 2 2 2 2 2 2 3 3 4 4 5 7 8 7 4 4 4 5 5 5 5 5 5 5 5 6 6 8 6 6 6 5 5 5 5 5 3 3
1 2 2 2 2 2 2 2 2 2 3 3 3 4 4 5 7 8 6 3 3 4 5 5 5 5 8 8 5 5 5 5 6 8 8 8 8 7 4 2 2 2 3
3 3 2 2 2 3 3 3 2 2 3 3 3 3 4 5 7 8 6 3 3 4 3 4 7 7 8 8 5 5 6 5 3 3 4 5 5 5 6 4 4 3 2
3 2 2 2 2 3 2 2 2 2 2 2 3 3 4 5 6 7 6 3 4 3 3 3 4 8 8 8 6 5 7 4 3 3 2 2 2 2 2 2 3 3 3
2 2 2 2 2 2 2 2 2 2 2 3 3 4 3 4 5 6 7 6 5 4 4 3 4 7 7 7 5 6 6 4 2 2 2 2 2 2 2 2 2 2 2
2 2 2 3 2 2 2 2 2 2 2 2 2 3 3 3 4 7 7 7 7 4 3 5 6 7 6 4 5 6 4 2 2 2 3 3 2 2 1 1 1 1 1
2 3 2 2 3 2 2 2 2 2 2 3 3 3 3 3 3 3 3 3 5 4 3 4 5 4 3 3 3 2 1 2 2 3 2 1 1 1 1 1 1 1 1
2 2 2 2 2 2 2 2 2 3 3 4 3 3 3 4 5 6 4 3 2 3 2 1 1 1 1 1 1 1 1 1 1 1 2 1 1 1 1 1 1 1 1
2 2 2 2 2 2 2 3 4 4 6 7 6 5 5 6 8 7 6 6 6 4 1 1 2 2 2 2 2 2 1 2 2 1 2 2 2 2 1 1 1 1 1
2 2 2 2 2 2 2 2 4 4 5 5 6 6 6 7 7 6 6 6 5 3 2 2 2 3 3 2 2 2 2 2 1 2 2 2 2 2 1 1 1 1 1
2 3 3 2 2 3 3 3 3 3 4 4 4 6 6 6 6 6 6 3 2 2 2 2 3 3 3 3 3 2 2 1 1 2 2 2 2 2 1 2 2 2 2
2 2 2 2 3 3 3 3 3 3 3 4 4 4 5 6 6 5 3 1 2 2 2 2 3 3 2 2 2 2 2 2 2 2 2 2 2 2 2 2 2 3 2
2 4 3 3 3 2 2 2 3 3 3 4 4 4 3 3 2 2 2 2 2 2 2 3 2 2 2 2 2 2 2 2 2 2 2 2 2 2 2 2 2 2 2
2 3 4 3 3 3 3 3 3 3 3 4 4 5 6 3 3 3 3 2 2 3 3 3 2 2 2 1 1 2 2 2 2 2 2 2 2 2 2 2 2 2 2
2 2 3 3 3 3 3 3 3 3 4 4 4 5 7 3 2 3 3 2 2 2 2 2 2 2 2 2 2 2 2 2 2 2 2 2 2 2 2 2 2 2 2
2 3 3 3 3 4 4 3 3 3 4 4 4 4 3 3 3 2 2 2 2 2 2 1 1 1 1 1 2 2 2 3 2 3 3 2 2 2 2 2 3 3 2
2 3 3 3 2 2 3 3 3 3 3 4 3 3 3 2 2 2 2 2 2 2 2 1 2 2 2 2 1 1 1 2 2 2 3 3 3 2 2 2 3 3 3
2 3 3 3 3 3 3 3 3 3 4 4 3 3 3 2 2 2 2 2 2 2 2 2 1 1 2 2 2 2 3 3 3 2 2 2 3 3 3 3 2 2 2
2 3 3 3 3 3 3 3 3 3 3 3 3 3 2 2 2 2 2 2 2 2 2 2 2 2 3 2 2 3 4 4 4 3 2 2 2 2 2 2 3 3 3
Wind_Direction
194 196 182 185 178 170 180 200 202 207 197 197 203 214 225 219 205 201 216 209 209 222 225 218 226 219 220 218 212 214 220 212 241 262 249 245 228 231 251 245 250 248 260
201 197 196 190 179 185 205 212 200 203 207 207 203 211 230 231 217 205 214 216 215 223 229 225 230 223 227 225 218 221 225 221 225 253 259 240 236 229 232 247 257 256 252
195 189 192 192 195 207 221 220 206 206 216 216 209 214 229 230 225 220 219 222 225 230 228 227 228 219 230 230 225 225 227 231 226 236 255 249 246 234 241 258 258 264 269
192 198 209 209 212 218 224 223 212 206 212 218 221 224 231 232 225 223 223 229 235 238 232 227 226 221 226 226 227 224 221 224 228 235 252 255 247 237 220 246 269 263 272
196 212 229 227 219 220 222 222 218 216 226 227 228 238 242 237 230 230 228 230 233 242 242 235 232 233 234 232 229 221 215 221 227 236 246 253 247 232 234 232 257 275 276
205 226 236 233 229 237 234 223 222 230 244 240 237 237 246 254 258 250 245 233 233 237 247 250 248 243 243 245 243 236 225 223 225 229 241 243 245 237 232 233 239 261 274
252 259 247 229 243 252 250 233 234 238 245 253 252 243 247 257 265 262 258 251 238 238 242 248 254 251 253 244 245 243 238 241 237 232 237 241 239 231 222 231 235 240 252
293 287 275 246 246 253 244 244 247 244 238 247 254 253 255 263 269 269 266 253 245 243 240 241 245 250 245 243 240 240 239 241 240 235 234 240 240 231 221 224 229 245 262
286 282 277 258 255 260 256 256 256 246 250 247 251 249 253 265 269 269 265 247 246 251 249 245 243 243 250 251 242 239 250 256 256 247 248 252 250 248 236 201 210 242 271
277 277 274 260 253 256 257 258 265 254 254 257 263 258 255 263 273 272 264 241 250 259 262 254 250 254 257 253 240 231 243 246 235 244 248 252 244 238 235 221 205 225 252
288 293 291 279 267 264 261 262 269 268 272 272 272 273 262 264 274 270 264 244 242 254 258 259 256 264 268 263 252 238 245 245 218 217 234 246 241 235 237 227 214 218 228
307 303 297 294 288 289 273 282 274 258 268 279 283 292 284 277 277 276 271 261 261 243 249 254 258 267 268 264 253 254 256 243 197 207 230 239 238 240 244 238 235 239 232
320 312 308 308 301 290 268 274 285 274 269 281 280 284 294 294 288 288 283 274 268 255 249 260 268 270 268 259 259 262 254 214 195 218 232 240 234 224 218 223 252 249 268
313 313 314 312 312 310 290 270 266 266 269 277 278 282 291 294 288 287 278 276 275 266 263 266 272 276 277 280 275 267 239 217 211 215 229 237 215 203 216 209 232 267 307
310 311 315 311 304 307 301 280 269 255 253 266 269 269 279 284 283 290 289 269 260 250 262 293 309 299 277 279 277 261 240 231 229 212 212 222 233 225 238 214 206 234 226
304 309 307 304 303 300 302 312 307 288 293 286 282 281 281 285 299 299 296 288 284 270 259 240 245 243 244 244 245 253 236 225 226 217 212 211 218 222 226 222 218 218 235
278 288 292 293 294 295 294 296 309 322 321 309 301 296 293 300 305 305 299 292 283 266 245 242 246 243 241 241 242 241 239 237 225 217 216 210 210 213 210 220 226 234 248
277 279 280 280 283 281 279 280 281 292 306 310 313 308 307 310 310 309 307 309 292 265 254 247 246 243 238 236 236 237 235 235 229 221 219 214 207 213 220 223 222 224 246
281 280 277 277 279 275 274 276 277 279 285 294 303 308 311 311 309 307 310 282 264 268 268 264 257 249 241 236 235 228 223 228 229 221 219 218 216 216 226 227 228 243 249
284 282 285 281 281 279 277 274 276 278 282 285 287 292 303 308 301 296 283 267 262 264 266 266 265 259 249 238 229 220 221 223 220 220 221 219 218 214 223 230 234 235 236
282 284 288 287 274 272 271 270 271 274 278 281 280 283 288 286 283 281 276 269 263 267 270 270 269 267 256 239 230 226 222 223 221 218 215 216 214 221 226 227 230 227 231
283 284 279 271 271 272 275 271 270 271 273 277 284 289 295 288 275 275 275 278 275 270 266 264 263 259 246 232 226 223 224 224 220 212 213 218 222 226 224 224 226 226 226
284 287 290 282 274 279 288 279 274 272 272 273 279 286 289 284 278 274 275 279 280 281 280 273 270 274 274 255 234 221 219 222 220 212 212 218 223 226 223 225 224 227 230
281 282 285 284 282 278 279 281 280 280 280 279 281 282 281 279 278 279 279 279 282 281 280 273 264 266 277 278 262 252 240 236 226 214 208 212 216 224 225 224 224 223 229
287 287 289 286 279 280 282 282 283 284 285 285 284 284 283 281 280 281 281 280 282 284 290 291 279 269 266 272 268 258 256 258 257 240 211 201 206 215 219 222 221 220 226
296 293 291 290 282 278 277 279 280 280 281 284 282 278 277 279 280 279 278 276 283 289 291 290 284 284 281 276 264 259 262 262 256 251 224 196 203 211 210 216 216 221 220